Torna al catalogo

STARLINK-11696

AttivoComunicazioniVLEO
NORAD 64324·PAYLOAD·🇺🇸 United States

Lanciato Jun 10, 2025 da Cape Canaveral Space Force Station

Loading…

Prossimi Passaggi (prossime 24 ore)

TLE

AggiornatoSource: CelesTrak SupGP

Epoca: Sep 15, 2026, 03:38 UTC

1 64324C 25124H   26258.15187500  .00012982  00000+0  10086-3 0  2580
2 64324  42.9999 326.9650 0001568 256.7812 133.4770 15.70823904    10

Traccia STARLINK-11696 in tempo reale con AllMySat

Download on the App Store